QAK2907 MMUN-MUHA

Flight info

Callsign QAK2907
Flight time 0h 50m
Altitude 33000
Route NUDA1A/12R NUDAL UR506 KALNO VETSI2A
Aircraft A320/M-SDE3FGHIRWY/LB1

Departure

Time 2026-04-29 01:34
Airport Cancún International Airport (MMUN)

Arrival

Time 2026-04-29 02:25
Airport José Martí International Airport (MUHA)
Time Latitude Longitude Altitude Speed Heading
2026-04-29 01:02 21.04736 -86.88320 29 ft 0 kts 123°
2026-04-29 01:18 21.04739 -86.88325 29 ft 2 kts 123°
2026-04-29 01:19 21.04749 -86.88341 29 ft 2 kts 123°
2026-04-29 01:19 21.04758 -86.88356 29 ft 2 kts 123°
2026-04-29 01:19 21.04769 -86.88370 29 ft 3 kts 150°
2026-04-29 01:19 21.04786 -86.88377 29 ft 3 kts 187°
2026-04-29 01:20 21.04792 -86.88376 29 ft 0 kts 197°
2026-04-29 01:28 21.04780 -86.88380 29 ft 3 kts 197°
2026-04-29 01:29 21.04764 -86.88386 29 ft 4 kts 203°
2026-04-29 01:29 21.04737 -86.88403 29 ft 4 kts 213°
2026-04-29 01:29 21.04717 -86.88418 29 ft 3 kts 213°
2026-04-29 01:29 21.04702 -86.88428 29 ft 4 kts 213°
2026-04-29 01:30 21.04660 -86.88458 29 ft 10 kts 213°
2026-04-29 01:30 21.04604 -86.88499 29 ft 9 kts 214°
2026-04-29 01:30 21.04547 -86.88539 29 ft 11 kts 213°
2026-04-29 01:30 21.04474 -86.88589 30 ft 13 kts 213°
2026-04-29 01:31 21.04453 -86.88657 31 ft 10 kts 299°
2026-04-29 01:31 21.04488 -86.88714 30 ft 9 kts 303°
2026-04-29 01:31 21.04521 -86.88766 30 ft 8 kts 303°
2026-04-29 01:31 21.04550 -86.88813 30 ft 7 kts 305°
2026-04-29 01:32 21.04583 -86.88863 30 ft 9 kts 304°
2026-04-29 01:32 21.04615 -86.88914 30 ft 8 kts 304°
2026-04-29 01:32 21.04639 -86.88966 30 ft 9 kts 281°
2026-04-29 01:32 21.04622 -86.89017 31 ft 7 kts 223°
2026-04-29 01:33 21.04593 -86.89039 31 ft 4 kts 214°
2026-04-29 01:33 21.04554 -86.89066 32 ft 10 kts 212°
2026-04-29 01:33 21.04493 -86.89039 32 ft 12 kts 123°
2026-04-29 01:33 21.04416 -86.88912 33 ft 36 kts 123°
2026-04-29 01:34 21.04137 -86.88466 35 ft 104 kts 124°
2026-04-29 01:34 21.03635 -86.87665 36 ft 156 kts 123°
2026-04-29 01:34 21.03021 -86.86656 572 ft 160 kts 124°
2026-04-29 01:34 21.02378 -86.85636 1137 ft 167 kts 123°
2026-04-29 01:35 21.01714 -86.84598 1835 ft 169 kts 123°
2026-04-29 01:35 21.01013 -86.83503 2254 ft 189 kts 123°
2026-04-29 01:35 21.00343 -86.82220 2580 ft 212 kts 116°
2026-04-29 01:35 20.99635 -86.80741 2981 ft 236 kts 116°
2026-04-29 01:36 20.98859 -86.79111 3606 ft 251 kts 116°
2026-04-29 01:36 20.98058 -86.77431 4466 ft 256 kts 116°
2026-04-29 01:36 20.97238 -86.75714 4862 ft 260 kts 116°
2026-04-29 01:36 20.96415 -86.73979 4979 ft 261 kts 114°
2026-04-29 01:37 20.96006 -86.72134 5015 ft 262 kts 89°
2026-04-29 01:37 20.96323 -86.70187 5665 ft 267 kts 78°
2026-04-29 01:37 20.96705 -86.68229 6576 ft 268 kts 79°
2026-04-29 01:37 20.97073 -86.66261 7408 ft 271 kts 79°
2026-04-29 01:38 20.97439 -86.64276 8225 ft 274 kts 79°
2026-04-29 01:38 20.97809 -86.62262 9027 ft 277 kts 79°
2026-04-29 01:38 20.98178 -86.60257 9825 ft 280 kts 78°
2026-04-29 01:38 20.98753 -86.58266 10402 ft 291 kts 70°
2026-04-29 01:39 20.99486 -86.56142 10627 ft 313 kts 70°
2026-04-29 01:39 21.00266 -86.53907 11120 ft 324 kts 69°
2026-04-29 01:39 21.01064 -86.51627 11766 ft 329 kts 69°
2026-04-29 01:39 21.01858 -86.49353 12422 ft 333 kts 69°
2026-04-29 01:40 21.02673 -86.47012 13077 ft 337 kts 68°
2026-04-29 01:40 21.03495 -86.44650 13727 ft 340 kts 68°
2026-04-29 01:40 21.04328 -86.42255 14309 ft 344 kts 68°
2026-04-29 01:40 21.05167 -86.39842 14890 ft 347 kts 68°
2026-04-29 01:41 21.06013 -86.37411 15472 ft 350 kts 67°
2026-04-29 01:41 21.06863 -86.34963 16048 ft 352 kts 67°
2026-04-29 01:41 21.07707 -86.32521 16625 ft 355 kts 67°
2026-04-29 01:41 21.08569 -86.30022 17193 ft 358 kts 66°
2026-04-29 01:42 21.09438 -86.27508 17759 ft 361 kts 66°
2026-04-29 01:42 21.10315 -86.24973 18322 ft 364 kts 66°
2026-04-29 01:42 21.11196 -86.22423 18812 ft 366 kts 66°
2026-04-29 01:42 21.12075 -86.19883 19307 ft 369 kts 66°
2026-04-29 01:43 21.12969 -86.17299 19810 ft 371 kts 66°
2026-04-29 01:43 21.13869 -86.14692 20307 ft 374 kts 66°
2026-04-29 01:43 21.14775 -86.12065 20807 ft 376 kts 66°
2026-04-29 01:43 21.15686 -86.09420 21306 ft 379 kts 66°
2026-04-29 01:44 21.16593 -86.06791 21803 ft 382 kts 66°
2026-04-29 01:44 21.17517 -86.04105 22311 ft 384 kts 66°
2026-04-29 01:44 21.18449 -86.01398 22823 ft 387 kts 66°
2026-04-29 01:44 21.19346 -85.98696 23317 ft 391 kts 70°
2026-04-29 01:45 21.19948 -85.95822 23776 ft 396 kts 75°
2026-04-29 01:45 21.20494 -85.92920 24180 ft 399 kts 74°
2026-04-29 01:45 21.21047 -85.89989 24573 ft 402 kts 74°
2026-04-29 01:45 21.21606 -85.87046 24952 ft 405 kts 74°
2026-04-29 01:46 21.22171 -85.84078 25327 ft 407 kts 74°
2026-04-29 01:46 21.22740 -85.81084 25689 ft 410 kts 74°
2026-04-29 01:46 21.23305 -85.78108 26048 ft 413 kts 74°
2026-04-29 01:46 21.23881 -85.75080 26400 ft 416 kts 73°
2026-04-29 01:47 21.24461 -85.72032 26742 ft 419 kts 73°
2026-04-29 01:47 21.25043 -85.68949 27081 ft 422 kts 73°
2026-04-29 01:47 21.25627 -85.65856 27397 ft 425 kts 73°
2026-04-29 01:47 21.26404 -85.62810 27728 ft 422 kts 65°
2026-04-29 01:48 21.27622 -85.59998 28053 ft 419 kts 55°
2026-04-29 01:48 21.29207 -85.57368 28387 ft 419 kts 52°
2026-04-29 01:48 21.30827 -85.54751 28708 ft 422 kts 52°
2026-04-29 01:48 21.32454 -85.52111 29023 ft 425 kts 52°
2026-04-29 01:49 21.34068 -85.49483 29347 ft 427 kts 52°
2026-04-29 01:49 21.35709 -85.46808 29652 ft 430 kts 52°
2026-04-29 01:49 21.37362 -85.44114 29950 ft 433 kts 52°
2026-04-29 01:49 21.39030 -85.41396 30221 ft 435 kts 52°
2026-04-29 01:50 21.40697 -85.38680 30487 ft 437 kts 51°
2026-04-29 01:50 21.42370 -85.35952 30768 ft 438 kts 51°
2026-04-29 01:50 21.44046 -85.33220 31049 ft 439 kts 51°
2026-04-29 01:50 21.45723 -85.30482 31313 ft 439 kts 51°
2026-04-29 01:51 21.47385 -85.27767 31583 ft 440 kts 51°
2026-04-29 01:51 21.49063 -85.25025 31962 ft 438 kts 51°
2026-04-29 01:51 21.50737 -85.22282 32355 ft 435 kts 51°
2026-04-29 01:51 21.52371 -85.19603 32725 ft 433 kts 51°
2026-04-29 01:52 21.54022 -85.16890 33000 ft 432 kts 51°
2026-04-29 01:52 21.55655 -85.14202 33055 ft 423 kts 51°
2026-04-29 01:52 21.58816 -85.08995 33059 ft 411 kts 51°
2026-04-29 01:53 21.61934 -85.03890 33063 ft 410 kts 51°
2026-04-29 01:53 21.65071 -84.98764 33063 ft 410 kts 51°
2026-04-29 01:54 21.68230 -84.93588 33066 ft 420 kts 51°
2026-04-29 01:54 21.71484 -84.88253 33067 ft 436 kts 51°
2026-04-29 01:55 21.74851 -84.82697 33066 ft 449 kts 52°
2026-04-29 01:55 21.78273 -84.77036 33065 ft 457 kts 52°
2026-04-29 01:56 21.81761 -84.71248 33067 ft 463 kts 52°
2026-04-29 01:56 21.85217 -84.65370 33070 ft 467 kts 53°
2026-04-29 01:57 21.88715 -84.59509 33067 ft 467 kts 52°
2026-04-29 01:57 21.92329 -84.53671 33067 ft 468 kts 51°
2026-04-29 01:58 21.95954 -84.47827 33063 ft 468 kts 52°
2026-04-29 01:58 21.99537 -84.42009 33068 ft 469 kts 52°
2026-04-29 01:59 22.03130 -84.36143 33070 ft 469 kts 52°
2026-04-29 01:59 22.06733 -84.30253 33065 ft 469 kts 52°
2026-04-29 02:00 22.10308 -84.24401 33068 ft 465 kts 52°
2026-04-29 02:00 22.12048 -84.21544 33067 ft 445 kts 52°
2026-04-29 02:00 22.13716 -84.18805 33073 ft 428 kts 52°
2026-04-29 02:01 22.16947 -84.13524 32984 ft 425 kts 51°
2026-04-29 02:01 22.18593 -84.10849 32306 ft 427 kts 51°
2026-04-29 02:01 22.20239 -84.08168 31625 ft 427 kts 52°
2026-04-29 02:02 22.21865 -84.05505 31128 ft 423 kts 52°
2026-04-29 02:02 22.23461 -84.02879 30637 ft 419 kts 52°
2026-04-29 02:02 22.25054 -84.00255 30160 ft 416 kts 52°
2026-04-29 02:02 22.26636 -83.97654 29629 ft 411 kts 52°
2026-04-29 02:03 22.28183 -83.95115 29172 ft 406 kts 52°
2026-04-29 02:03 22.29724 -83.92583 28698 ft 401 kts 52°
2026-04-29 02:03 22.31256 -83.90063 28234 ft 397 kts 52°
2026-04-29 02:03 22.32759 -83.87585 27752 ft 393 kts 52°
2026-04-29 02:04 22.34248 -83.85127 27297 ft 389 kts 52°
2026-04-29 02:04 22.35725 -83.82692 26828 ft 386 kts 52°
2026-04-29 02:04 22.37192 -83.80277 26366 ft 382 kts 52°
2026-04-29 02:04 22.38633 -83.77907 25904 ft 380 kts 53°
2026-04-29 02:05 22.40080 -83.75525 25406 ft 378 kts 53°
2026-04-29 02:05 22.41530 -83.73137 24920 ft 376 kts 53°
2026-04-29 02:05 22.42935 -83.70817 24477 ft 373 kts 53°
2026-04-29 02:05 22.44353 -83.68476 24107 ft 368 kts 53°
2026-04-29 02:06 22.45746 -83.66172 23684 ft 365 kts 53°
2026-04-29 02:06 22.47130 -83.63882 23173 ft 362 kts 53°
2026-04-29 02:06 22.48489 -83.61631 22404 ft 355 kts 53°
2026-04-29 02:06 22.49822 -83.59423 21924 ft 341 kts 54°
2026-04-29 02:07 22.51095 -83.57314 21479 ft 328 kts 54°
2026-04-29 02:07 22.52318 -83.55287 21063 ft 316 kts 54°
2026-04-29 02:07 22.53486 -83.53350 20664 ft 306 kts 54°
2026-04-29 02:07 22.54637 -83.51443 20272 ft 302 kts 54°
2026-04-29 02:08 22.55782 -83.49545 19883 ft 301 kts 54°
2026-04-29 02:08 22.56934 -83.47638 19493 ft 302 kts 54°
2026-04-29 02:08 22.58087 -83.45731 19099 ft 303 kts 54°
2026-04-29 02:08 22.59246 -83.43810 18703 ft 304 kts 54°
2026-04-29 02:09 22.60408 -83.41883 18302 ft 306 kts 54°
2026-04-29 02:09 22.61555 -83.39979 17881 ft 306 kts 55°
2026-04-29 02:09 22.62721 -83.38044 17485 ft 306 kts 55°
2026-04-29 02:09 22.63884 -83.36113 17094 ft 306 kts 55°
2026-04-29 02:10 22.65045 -83.34189 16711 ft 305 kts 55°
2026-04-29 02:10 22.66205 -83.32261 16324 ft 305 kts 55°
2026-04-29 02:10 22.67353 -83.30352 15956 ft 305 kts 56°
2026-04-29 02:10 22.68526 -83.28397 15575 ft 305 kts 56°
2026-04-29 02:11 22.69644 -83.26473 15210 ft 306 kts 61°
2026-04-29 02:11 22.70417 -83.24332 14832 ft 307 kts 74°
2026-04-29 02:11 22.70883 -83.22062 14440 ft 308 kts 76°
2026-04-29 02:11 22.71351 -83.19794 14071 ft 309 kts 76°
2026-04-29 02:12 22.71820 -83.17549 13668 ft 309 kts 76°
2026-04-29 02:12 22.72300 -83.15278 13273 ft 308 kts 76°
2026-04-29 02:12 22.72776 -83.13017 12881 ft 307 kts 76°
2026-04-29 02:12 22.73249 -83.10772 12501 ft 305 kts 76°
2026-04-29 02:13 22.73717 -83.08543 12117 ft 303 kts 76°
2026-04-29 02:13 22.74185 -83.06308 11733 ft 302 kts 76°
2026-04-29 02:13 22.74694 -83.04104 11346 ft 301 kts 74°
2026-04-29 02:13 22.75272 -83.01954 10955 ft 300 kts 72°
2026-04-29 02:14 22.75894 -82.99788 10569 ft 299 kts 72°
2026-04-29 02:14 22.76519 -82.97644 10173 ft 299 kts 72°
2026-04-29 02:14 22.77143 -82.95498 9893 ft 293 kts 72°
2026-04-29 02:14 22.77738 -82.93435 9576 ft 289 kts 72°
2026-04-29 02:15 22.78331 -82.91357 9078 ft 285 kts 73°
2026-04-29 02:15 22.78910 -82.89306 8555 ft 285 kts 73°
2026-04-29 02:15 22.79485 -82.87248 8177 ft 283 kts 73°
2026-04-29 02:15 22.80016 -82.85347 7816 ft 282 kts 73°
2026-04-29 02:16 22.80586 -82.83317 7419 ft 280 kts 73°
2026-04-29 02:16 22.81145 -82.81323 7002 ft 279 kts 73°
2026-04-29 02:16 22.81705 -82.79314 6525 ft 276 kts 73°
2026-04-29 02:16 22.82251 -82.77349 6032 ft 267 kts 73°
2026-04-29 02:17 22.82787 -82.75423 5596 ft 267 kts 73°
2026-04-29 02:17 22.83322 -82.73499 5170 ft 267 kts 73°
2026-04-29 02:17 22.83853 -82.71594 4744 ft 267 kts 73°
2026-04-29 02:17 22.84387 -82.69666 4382 ft 263 kts 73°
2026-04-29 02:18 22.84893 -82.67834 4322 ft 247 kts 73°
2026-04-29 02:18 22.85371 -82.66104 4245 ft 232 kts 73°
2026-04-29 02:18 22.85826 -82.64463 4153 ft 222 kts 73°
2026-04-29 02:18 22.86117 -82.63413 4095 ft 216 kts 73°
2026-04-29 02:19 22.86670 -82.61416 3998 ft 200 kts 73°
2026-04-29 02:19 22.87058 -82.60021 3896 ft 186 kts 73°
2026-04-29 02:19 22.87420 -82.58721 3804 ft 173 kts 73°
2026-04-29 02:19 22.87916 -82.57558 3529 ft 169 kts 58°
2026-04-29 02:20 22.88546 -82.56548 3307 ft 154 kts 57°
2026-04-29 02:20 22.89141 -82.55634 3082 ft 144 kts 56°
2026-04-29 02:20 22.89713 -82.54766 2890 ft 139 kts 56°
2026-04-29 02:20 22.90093 -82.54191 2771 ft 138 kts 56°
2026-04-29 02:21 22.90640 -82.53366 2596 ft 136 kts 57°
2026-04-29 02:21 22.91198 -82.52526 2420 ft 135 kts 56°
2026-04-29 02:21 22.91743 -82.51707 2242 ft 136 kts 57°
2026-04-29 02:21 22.92293 -82.50880 2070 ft 134 kts 57°
2026-04-29 02:22 22.92838 -82.50059 1891 ft 133 kts 57°
2026-04-29 02:22 22.93380 -82.49245 1722 ft 133 kts 57°
2026-04-29 02:22 22.93926 -82.48423 1549 ft 133 kts 56°
2026-04-29 02:22 22.94466 -82.47611 1369 ft 133 kts 56°
2026-04-29 02:23 22.95009 -82.46793 1195 ft 133 kts 56°
2026-04-29 02:23 22.95550 -82.45979 1023 ft 133 kts 56°
2026-04-29 02:23 22.96090 -82.45166 848 ft 133 kts 55°
2026-04-29 02:23 22.96622 -82.44365 681 ft 132 kts 55°
2026-04-29 02:24 22.97158 -82.43558 495 ft 131 kts 54°
2026-04-29 02:24 22.97696 -82.42752 312 ft 132 kts 54°
2026-04-29 02:24 22.98215 -82.41963 220 ft 119 kts 54°
2026-04-29 02:25 22.98872 -82.40978 218 ft 59 kts 54°
2026-04-29 02:25 22.99088 -82.40652 220 ft 48 kts 54°
2026-04-29 02:25 22.99269 -82.40381 219 ft 41 kts 54°
2026-04-29 02:25 22.99388 -82.40206 219 ft 10 kts 46°
2026-04-29 02:26 22.99461 -82.40177 221 ft 12 kts 12°
2026-04-29 02:26 22.99538 -82.40161 223 ft 10 kts 10°
2026-04-29 02:26 22.99607 -82.40148 221 ft 11 kts
2026-04-29 02:26 22.99669 -82.40097 222 ft 13 kts 53°
2026-04-29 02:27 22.99725 -82.40010 223 ft 15 kts 54°
2026-04-29 02:27 22.99792 -82.39909 223 ft 17 kts 54°
2026-04-29 02:27 22.99864 -82.39801 219 ft 18 kts 54°
2026-04-29 02:27 22.99936 -82.39693 219 ft 9 kts 55°
2026-04-29 02:28 22.99986 -82.39667 219 ft 9 kts 335°
2026-04-29 02:28 23.00035 -82.39704 226 ft 8 kts 324°
2026-04-29 02:28 23.00078 -82.39726 224 ft 6 kts
2026-04-29 02:28 23.00107 -82.39703 219 ft 5 kts 49°
2026-04-29 02:29 23.00124 -82.39679 223 ft 2 kts 52°
2026-04-29 02:29 23.00124 -82.39678 223 ft 0 kts 52°